FENGYUN 1C DEB, 29790

Orbit data source: Space-Track

FENGYUN 1C DEB, 29790 is space debris in SSO originally from a launch on Mon, 10 May 1999 UTC launched from the Taiyaun Space Center, China (TSC). Fengyun 1C debris stems from the Chinese weather satellite Fengyun-1C, which was intentionally destroyed by a Chinese anti-satellite missile in 2007. This event dramatically increased the amount of space debris, with thousands of trackable fragments posing hazards to satellites and human spaceflight. The Fengyun 1C debris cloud has become a focal point in discussions about space sustainability and the need for international regulations to prevent the creation of new debris.

Loading next visibility...
Identifier
29790, 1999-025CG
Orbit
SSO
Country
Flag of CNCN / PRC
Related business
Manufacturer
Unknown
Mission
Spacecraft
Bus & Motor
Unknown
Mass
Unknown
Launch date (UTC)
1999-05-10 (27 years ago)
Launch vehicle
Unknown
Launch site
Taiyaun Space Center, China (TSC)
Object type
Payload
Rocket body
Debris
Shape & HBR
Unknown shape, 0.2 m
Radar Cross Section
Medium (>0.1 m² and <1 m²)

Expand to show TLE details & history
Last TLE update: 6 days ago

TLE from 6 days ago
0 FENGYUN 1C DEB
1 29790U 99025CG  26155.23686994  .00000956  00000-0  35802-3 0  9999
2 29790  99.1500 163.8225 0076939  34.5745 326.0406 14.32586970 10100
Epoch: 2026-06-04T05:41Z
TLE epoch observation values (Epoch: 2026-06-04T05:41:05.562Z)
Latitude
-0.00005°
Longitude
-174.13469°
Altitude
740.438 km
Speed
7.508 km/s
True Right ascension
10h 55m 17s
True Declination
0° 00' 00"
Sunlit
Object was in daylight at epoch
Visualization orbit readout
Latitude
Unknown
Longitude
Unknown
Altitude
Unknown
Speed
Unknown
Apparent Right ascension
Unknown
Apparent Declination
Unknown
Sunlit
N/A
Visualization observer readout
Local Sidereal Time
23:09:09
Azimuth
Unknown
Elevation
Unknown
Doppler factor
Unknown
Orbital elements
Apogee altitude
835.336 km
Perigee altitude
725.184 km
Semi-major axis
7,158.397 km
Eccentricity
0.00769
Inclination
99.15°
RAAN
163.8225°
Arg. of periapsis
34.5745°
True anomaly
325.54415°
Mean anomaly
326.0406°
Eccentric anomaly
325.79277°
Mean motion
3.5836 °/min
Orbital period
100.46 mins
BSTAR
0.00035802
Loading maneuver chart data...
Computing Atmospheric mass density...
Loading historical data...
Loading historical data...
Loading historical data...
Loading historical data...
Loading historical data...
Loading historical data...
Loading historical data...

Documentation

Showing up to 5 results
|